Starlink 30192

operational
NORAD ID: 57405 Int'l Des: 2023-102 Owner: SPXS Country: US Constellation: starlink
LEOCIRCULAR

About Starlink 30192

Description loading...

Live Position

Loading 3D Globe...

Upcoming Passes

Altitude History

Altitude vs Time

uPlot chart will show altitude changes over time

Two-Line Element Set

1 57405U 23102B 25305.66668981 .00665014 00000-0 28956-1 0 9997
2 57405 43.0016 223.5883 0001778 277.9492 281.5302 15.19276494 5791
Epoch: Nov 1, 2025 • Age: 21 hours

Current Status

Altitude 509.2 km
Velocity 7.61 km/s
Sub-Earth Point -21.10°S, 167.32°W
Launch Date Jul 19, 2023
Age 2.2 years
Type internet

Technical Details

Classification Payload
Mass 730.00 kg
Dry Mass 700.00 kg
Total Mass 730.00 kg
Length 0.30 m
Diameter 4.10 m
Span 29.00 m
Shape Box + pan
Manufacturer SPXS
Bus Type Starlink V2M
Phase Status In Orbit
Owner/State SPXS/US

Large Constellations

Loading constellations...